Hourly Data Report for September 29, 2017

All times are specified in Local Standard Time (LST). Add 1 hour to adjust for Daylight Saving Time where and when it is observed.

ARVIAT A
NUNAVUT

61°05'38.000" N
94°04'18.000" W
10.40 m
2300427
71174
YEK

Download Data

Hourly Data (September 2017)
Hourly Data Report for September 29, 2017
Temp Definition
°C
Dew Point Temp Definition
°C
Rel Hum Definition
%
Wind Dir Definition
10's deg

Wind Spd Definition
km/h
Visibility Definition
km
Stn Press Definition
kPa
Hmdx Definition


Wind Chill Definition


Weather Definition


TIME
00:00 Legend Double Dagger 1.2 -1.9 80 23 5 16.1 102.45     LegendNANA
01:00 Legend Double Dagger 0.4 -1.7 86 23 15 16.1 102.42     LegendNANA
02:00 Legend Double Dagger 0.5 -2.1 83 21 17 16.1 102.33     LegendNANA
03:00 Legend Double Dagger 1.0 -2.1 80 21 22 16.1 102.24     LegendNANA
04:00 Legend Double Dagger 1.0 -1.7 82 21 24 16.1 102.18     LegendNANA
05:00 Legend Double Dagger 1.5 -1.2 82 21 35 16.1 101.99     LegendNANA
06:00 Legend Double Dagger 2.5 -0.1 83 19 37 16.1 101.82     LegendNANA
07:00 Legend Double Dagger 3.2 1.1 86 19 46 16.1 101.59     LegendNANA
08:00 Legend Double Dagger 3.9 2.3 89 19 46 16.1 101.40     LegendNANA
09:00 Legend Double Dagger 4.7 3.4 91 19 52 16.1 101.12     LegendNANA
10:00 Legend Double Dagger 5.0 4.0 93 19 54 16.1 100.90     LegendNANA
11:00 Legend Double Dagger 5.3 4.1 92 20 59 16.1 100.68     LegendNANA
12:00 Legend Double Dagger 5.8 4.6 92 20 46 16.1 100.47     LegendNANA
13:00 Legend Double Dagger 8.1 5.9 86 22 39 16.1 100.33     LegendNANA
14:00 Legend Double Dagger 10.6 7.0 78 24 34 16.1 100.20     LegendNANA
15:00 Legend Double Dagger 12.7 8.1 73 25 37 16.1 100.08     LegendNANA
16:00 Legend Double Dagger 15.2 9.1 67 26 35 16.1 100.02     LegendNANA
17:00 Legend Double Dagger 15.4 9.4 67 26 32 16.1 100.00     LegendNANA
18:00 Legend Double Dagger 14.4 9.5 72 26 21 16.1 99.99     LegendNANA
19:00 Legend Double Dagger 12.0 8.9 81 25 22 16.1 99.96     LegendNANA
20:00 Legend Double Dagger 10.3 8.1 86 25 18 16.1 99.95     LegendNANA
21:00 Legend Double Dagger 9.2 7.7 90 26 18 16.1 99.95     LegendNANA
22:00 Legend Double Dagger 9.4 7.7 89 27 17 16.1 99.94     LegendNANA
23:00 Legend Double Dagger 8.5 7.3 92 33 21 16.1 100.01     LegendNANA

Notes on Data Quality.

Legend

  • E = Estimated
  • M = Missing
  • NA = Not Available
  • ‡ = Partner data that is not subject to review by the National Climate Archives
Date modified: